Location: NJAA Observatory
(40.6819°N, 74.8979°W)
Time: 06:00:51
(UTC-04:00)

Courier 1B - All Passes

Search period start: 22 May 2015 00:00
Search period end: 01 June 2015 00:00
Orbit: 963 x 1209 km, 28.3° (Epoch: 22 May)

Date Brightness Start Highest point End Pass type
(mag) Time Alt. Az. Time Alt. Az. Time Alt. Az.
22 May - 00:48:31 10° WSW 00:54:52 30° S 01:00:53 10° SE visible
22 May - 02:43:22 10° WSW 02:48:06 18° SSW 02:52:32 10° SSE night (unlit)
22 May - 20:10:31 10° S 20:14:20 15° SSE 20:18:20 10° SE daylight
22 May - 22:01:24 10° SW 22:07:42 27° SSE 22:13:52 10° ESE visible
22 May - 23:54:38 10° WSW 00:01:12 31° S 00:07:28 10° SE visible
23 May - 01:49:02 10° WSW 01:54:33 22° SSW 01:59:45 10° SSE night (unlit)
23 May - 19:18:56 10° SSE 19:20:41 11° SSE 19:22:46 10° SE daylight
23 May - 21:08:00 10° SW 21:14:00 25° SSE 21:19:59 10° ESE visible
23 May - 23:00:49 10° WSW 23:07:30 32° S 23:13:57 10° ESE visible
24 May - 00:54:54 10° WSW 01:00:56 26° SSW 01:06:41 10° SE visible
24 May - 02:51:18 10° SW 02:54:05 12° SSW 02:56:34 10° S night (unlit)
24 May - 20:14:48 10° SSW 20:20:19 21° SSE 20:25:54 10° ESE daylight
24 May - 22:07:06 10° SW 22:13:46 31° S 22:20:18 10° ESE visible
25 May - 00:00:52 10° WSW 00:07:17 29° S 00:13:26 10° SE visible
25 May - 01:56:09 10° WSW 02:00:32 16° SSW 02:04:38 10° SSE night (unlit)
25 May - 19:21:54 10° SSW 19:26:38 18° SSE 19:31:33 10° ESE daylight
25 May - 21:13:29 10° SW 21:20:03 30° S 21:26:33 10° ESE visible
25 May - 23:06:55 10° WSW 23:13:36 31° S 23:20:02 10° SE visible
26 May - 01:01:37 10° WSW 01:06:57 20° SSW 01:12:01 10° SSE visible
26 May - 18:29:31 10° S 18:32:59 14° SSE 18:36:45 10° SE daylight
26 May - 20:20:01 10° SW 20:26:20 27° SSE 20:32:40 10° ESE daylight
26 May - 22:13:05 10° WSW 22:19:52 33° S 22:26:31 10° ESE visible
27 May - 00:07:21 10° WSW 00:13:20 24° SSW 00:19:02 10° SE visible
27 May - 02:05:55 10° SSW 02:06:29 10° SSW 02:06:42 10° SSW night (unlit)
27 May - 19:26:44 10° SSW 19:32:37 24° SSE 19:38:39 10° ESE daylight
27 May - 21:19:20 10° WSW 21:26:08 33° S 21:32:52 10° ESE visible
27 May - 23:13:16 10° WSW 23:19:39 28° SSW 23:25:50 10° SE visible
28 May - 01:09:08 10° SW 01:12:55 14° SSW 01:16:23 10° S visible
28 May - 18:33:41 10° SSW 18:38:57 20° SSE 18:44:25 10° ESE daylight
28 May - 20:25:42 10° SW 20:32:23 32° S 20:39:05 10° ESE daylight
28 May - 22:19:18 10° WSW 22:25:57 30° S 22:32:27 10° SE visible
29 May - 00:14:19 10° WSW 00:19:19 18° SSW 00:24:02 10° SSE visible
29 May - 17:41:00 10° S 17:45:18 16° SSE 17:49:53 10° ESE daylight
29 May - 19:32:13 10° SW 19:38:39 29° S 19:45:13 10° ESE daylight
29 May - 21:25:27 10° WSW 21:32:12 32° S 21:38:55 10° SE visible
29 May - 23:19:55 10° WSW 23:25:40 22° SSW 23:31:12 10° SSE visible
30 May - 16:48:59 10° S 16:51:42 12° SSE 16:54:44 10° SE daylight
30 May - 18:38:52 10° SW 18:44:56 26° SSE 18:51:13 10° ESE daylight
30 May - 20:31:42 10° WSW 20:38:28 33° S 20:45:16 10° ESE daylight
30 May - 22:25:46 10° WSW 22:31:59 26° SSW 22:38:03 10° SE visible
31 May - 00:22:38 10° SW 00:25:15 12° SSW 00:27:32 10° S visible
31 May - 17:45:45 10° SSW 17:51:16 23° SSE 17:57:04 10° ESE daylight
31 May - 19:38:05 10° SW 19:44:43 32° S 19:51:30 10° ESE daylight
31 May - 21:31:47 10° WSW 21:38:16 29° S 21:44:42 10° SE visible
31 May - 23:27:16 10° WSW 23:31:38 16° SSW 23:35:44 10° S visible
